Current Weather Conditions by Major Hwy


I-84 West to East [Columbia River Gorge] 100 PM PST THU NOV 23 2017 ELEVA CITY SKY/WX TMP DP RH WIND PRES REMARKS 10 ASTORIA, OR LGT RAIN 53 52 96 SW8 29.91F FOG 20 KELSO LGT RAIN 58 52 80 VRB6 29.90F 40 PORTLAND, OR LGT RAIN 61 53 75 W16G24 29.90R 30 TROUTDALE, OR CLOUDY 63 55 75 SW13G21 29.88S 240 THE DALLES, OR CLOUDY 64 54 69 NW13 29.80R 620 HERMISTON, OR CLOUDY 65 57 75 S15 29.78F 1,480 PENDLETON, OR CLOUDY 68 49 50 SW31G40 29.80F 2,710 LA GRANDE CLOUDY 68 43 40 W13G30 29.85F 3,370 BAKER CITY CLOUDY 67 42 40 S9 29.91F 2,190 ONTARIO CLOUDY 50 49 96 S3 30.00F FOG
I-90 West to East 100 PM PST THU NOV 23 2017 ELEVA CITY SKY/WX TMP DP RH WIND PRES REMARKS 30 SEATAC AIRPORT LGT RAIN 53 48 83 SW12 29.82S 1,730 ELLENSBURG LGT RAIN 52 49 89 NW9 29.73F 1,200 MOSES LAKE LGT RAIN 60 51 72 W15 29.71S 1,880 SPOKANE GEIGER CLOUDY 57 51 80 SW28G38 29.70F
I-82 North West to South East 100 PM PST THU NOV 23 2017 ELEVA CITY SKY/WX TMP DP RH WIND PRES REMARKS 1,730 ELLENSBURG LGT RAIN 52 49 89 NW9 29.73F 1,050 YAKIMA TC MOCLDY 59 48 67 W8 29.72R 720 360 PASCO FAIR 67 54 63 SW16 29.76F 620 HERMISTON, OR CLOUDY 65 57 75 S15 29.78F
Hwy97 North to South 100 PM PST THU NOV 23 2017 ELEVA CITY SKY/WX TMP DP RH WIND PRES REMARKS 850 OMAK FAIR 52 48 86 SE3 29.64F 630 WENATCHEE PTSUNNY 48 47 96 E7 29.69F FOG 1,730 ELLENSBURG LGT RAIN 52 49 89 NW9 29.73F 1,050 YAKIMA TC MOCLDY 59 48 67 W8 29.72R 1,640 GOLDENDALE* CLOUDY 64 54 69 NW13 29.80R *From Dallesport Airport Elev 240 3,080 REDMOND PTSUNNY 64 43 46 SW23G33 29.89F 4,100 KLAMATH FALLS FAIR 63 44 50 SW21G29 30.08F
I-5 North to South 100 PM PST THU NOV 23 2017 ELEVA CITY SKY/WX TMP DP RH WIND PRES REMARKS 150 BELLINGHAM CLOUDY 51 47 86 W3 29.78S 100 ARLINGTON LGT RAIN 50 47 89 E3 29.82S 610 EVERETT CLOUDY 49 48 97 NE3 29.83R 30 SEATAC AIRPORT LGT RAIN 53 48 83 SW12 29.82S 200 OLYMPIA LGT RAIN 52 51 97 SW7 29.88R 20 KELSO LGT RAIN 58 52 80 VRB6 29.90F 100 VANCOUVER PTSUNNY 62 55 77 W10G21 29.89R 40 PORTLAND LGT RAIN 61 53 75 W16G24 29.90R 200 SALEM LGT RAIN 60 54 80 SW12G21 29.92S 360 EUGENE LGT RAIN 59 57 93 W13 29.98S 510 ROSEBURG LGT RAIN 63 59 87 S5 29.99F FOG 1,300 MEDFORD PTSUNNY 62 58 86 N3 30.03F
Data from:
http://www.wrh.noaa.gov/sew/get.php?pil=RWR&sid=OR&version=0&format=printer
http://www.wrh.noaa.gov/sew/get.php?pil=RWR&sid=WA&version=0&format=printer

Current Observations

Washington State Current Weather Observations   …  Oregon State Current Weather Observation



48 Hour Forecast

Seattle  …  Vancouver  …  Portland
————————————————————————————————————————
Bend  …  Spokane  …  Richland  …  Pendleton  …  Blue Mountains I-84  …  Yakima
————————————————————————————————————————
Goldendale, Washington Higher Elevations  …  Dallesport Airport - Goldendale  …  Bingen - White Salmon - Hood River  …  Index


Top of Page